sat.trackr.live / text

‹ back to catalog

TELSTAR 11N

NORAD 34111 · 2009-009A

PAYLOAD ACTIVE UNKNOWN

§ Identity

Operator
Country
CA
Launch date
2009-02-26
Launch site
TYMSC
Launch vehicle
Mass (kg)
RCS (m²)
17.60

Purposes: comms

External: N2YO · Heavens-Above · Gunter

§ Orbital elements

Epoch: 2026-05-25T05:26:32.127072Z

Period
1,436.11 min
Inclination
0.0160°
Eccentricity
0.0002557
Mean motion
1.00270553 rev/d
Perigee alt
35,776.2 km
Apogee alt
35,797.7 km
Semi-major
42,165.1 km
B*
0.0000e+0
RAAN
336.0572°
Arg perigee
72.4646°
Mean anomaly
238.3818°
Rev number
4,601

§ Raw data

TELSTAR 11N1 34111U 09009A   26145.22676073 -.00000253  00000+0  00000+0 0  99982 34111   0.0160 336.0572 0002557  72.4646 238.3818  1.00270553 46010

JSON: /api/v1/satellites/34111 · /tle

For live sub-satellite position, see the globe view (requires WebGL).

§ Visibility from observer

Set your observer location to see the next 7 days of passes ≥ 10°. The values pass through the URL so the page stays shareable.

No JS? Fill the form by hand. The geolocation button needs JavaScript.